HAZ2211 ZSHC-ZGGG

Flight info

Callsign HAZ2211
Flight time 1h 35m
Altitude 32100
Route ELNEX A599 PLT W19 OLPAB
Aircraft B738/M-SDE2E3FGHIRWXY/LB1

Departure

Time 2026-04-27 08:18
Airport Hangzhou Xiaoshan International Airport (ZSHC)

Arrival

Time 2026-04-27 09:54
Airport Guangzhou Baiyun International Airport (ZGGG)
Time Latitude Longitude Altitude Speed Heading
2026-04-27 07:14 30.24343 120.43060 31 ft 0 kts 153°
2026-04-27 08:03 30.24345 120.43059 31 ft 2 kts 153°
2026-04-27 08:04 30.24367 120.43044 31 ft 4 kts 145°
2026-04-27 08:04 30.24388 120.43025 31 ft 4 kts 129°
2026-04-27 08:04 30.24399 120.43000 31 ft 4 kts 88°
2026-04-27 08:04 30.24398 120.42988 31 ft 0 kts 62°
2026-04-27 08:08 30.24422 120.43043 31 ft 11 kts 62°
2026-04-27 08:08 30.24456 120.43119 31 ft 11 kts 63°
2026-04-27 08:09 30.24489 120.43192 31 ft 10 kts 63°
2026-04-27 08:09 30.24520 120.43263 31 ft 10 kts 63°
2026-04-27 08:09 30.24550 120.43329 31 ft 8 kts 62°
2026-04-27 08:09 30.24572 120.43382 31 ft 7 kts 73°
2026-04-27 08:10 30.24550 120.43440 31 ft 12 kts 146°
2026-04-27 08:10 30.24448 120.43500 31 ft 18 kts 153°
2026-04-27 08:10 30.24341 120.43563 31 ft 17 kts 153°
2026-04-27 08:10 30.24241 120.43622 31 ft 16 kts 153°
2026-04-27 08:11 30.24145 120.43679 31 ft 15 kts 153°
2026-04-27 08:11 30.24056 120.43731 31 ft 14 kts 153°
2026-04-27 08:11 30.23972 120.43781 31 ft 13 kts 153°
2026-04-27 08:11 30.23892 120.43828 31 ft 13 kts 153°
2026-04-27 08:12 30.23816 120.43873 31 ft 12 kts 153°
2026-04-27 08:12 30.23742 120.43916 31 ft 12 kts 153°
2026-04-27 08:12 30.23672 120.43957 31 ft 11 kts 153°
2026-04-27 08:12 30.23605 120.43997 31 ft 11 kts 153°
2026-04-27 08:13 30.23540 120.44035 31 ft 10 kts 152°
2026-04-27 08:13 30.23478 120.44071 31 ft 10 kts 148°
2026-04-27 08:13 30.23458 120.44138 31 ft 9 kts 70°
2026-04-27 08:13 30.23496 120.44228 31 ft 18 kts 63°
2026-04-27 08:14 30.23558 120.44368 31 ft 18 kts 63°
2026-04-27 08:14 30.23615 120.44493 31 ft 17 kts 62°
2026-04-27 08:14 30.23664 120.44605 31 ft 13 kts 63°
2026-04-27 08:14 30.23704 120.44696 31 ft 11 kts 63°
2026-04-27 08:15 30.23739 120.44776 31 ft 12 kts 63°
2026-04-27 08:15 30.23776 120.44861 31 ft 12 kts 63°
2026-04-27 08:15 30.23809 120.44936 31 ft 10 kts 63°
2026-04-27 08:15 30.23818 120.45008 31 ft 9 kts 120°
2026-04-27 08:16 30.23771 120.45045 31 ft 7 kts 153°
2026-04-27 08:16 30.23726 120.45071 31 ft 7 kts 153°
2026-04-27 08:16 30.23682 120.45075 31 ft 7 kts 223°
2026-04-27 08:16 30.23665 120.45043 31 ft 2 kts 243°
2026-04-27 08:17 30.23657 120.45026 31 ft 7 kts 243°
2026-04-27 08:17 30.23603 120.44905 31 ft 26 kts 243°
2026-04-27 08:17 30.23486 120.44643 31 ft 57 kts 243°
2026-04-27 08:17 30.23187 120.43969 31 ft 129 kts 242°
2026-04-27 08:18 30.22685 120.42848 184 ft 176 kts 242°
2026-04-27 08:18 30.22124 120.41575 1117 ft 173 kts 240°
2026-04-27 08:18 30.21431 120.40459 2106 ft 171 kts 227°
2026-04-27 08:18 30.20603 120.39411 2639 ft 190 kts 227°
2026-04-27 08:19 30.19645 120.38210 2967 ft 217 kts 227°
2026-04-27 08:19 30.18558 120.36850 3337 ft 241 kts 227°
2026-04-27 08:19 30.17392 120.35393 4002 ft 254 kts 227°
2026-04-27 08:19 30.16157 120.33851 4666 ft 267 kts 227°
2026-04-27 08:20 30.14882 120.32261 5504 ft 272 kts 227°
2026-04-27 08:20 30.13585 120.30644 6351 ft 277 kts 228°
2026-04-27 08:20 30.12262 120.28994 7139 ft 283 kts 228°
2026-04-27 08:20 30.10913 120.27311 7945 ft 288 kts 229°
2026-04-27 08:21 30.09541 120.25603 8739 ft 292 kts 229°
2026-04-27 08:21 30.08217 120.23842 9502 ft 295 kts 236°
2026-04-27 08:21 30.07226 120.21787 10366 ft 293 kts 249°
2026-04-27 08:21 30.06573 120.19561 11222 ft 292 kts 255°
2026-04-27 08:22 30.06057 120.17286 12037 ft 294 kts 258°
2026-04-27 08:22 30.05568 120.14989 12841 ft 295 kts 257°
2026-04-27 08:22 30.05061 120.12690 13642 ft 296 kts 257°
2026-04-27 08:22 30.04541 120.10380 14258 ft 300 kts 256°
2026-04-27 08:23 30.04011 120.08051 14586 ft 300 kts 256°
2026-04-27 08:23 30.03479 120.05719 14668 ft 300 kts 256°
2026-04-27 08:23 30.02954 120.03426 14673 ft 299 kts 256°
2026-04-27 08:23 30.02401 120.01117 14675 ft 299 kts 253°
2026-04-27 08:24 30.01629 119.98883 14681 ft 307 kts 246°
2026-04-27 08:24 30.00603 119.96602 14697 ft 333 kts 243°
2026-04-27 08:24 29.99412 119.94203 14700 ft 355 kts 241°
2026-04-27 08:24 29.98148 119.91706 14692 ft 365 kts 241°
2026-04-27 08:25 29.96868 119.89162 14686 ft 368 kts 241°
2026-04-27 08:25 29.95586 119.86603 14680 ft 368 kts 241°
2026-04-27 08:25 29.94324 119.84079 14677 ft 368 kts 241°
2026-04-27 08:25 29.93046 119.81521 14676 ft 368 kts 241°
2026-04-27 08:26 29.91769 119.78965 14676 ft 368 kts 241°
2026-04-27 08:26 29.90494 119.76412 14676 ft 368 kts 241°
2026-04-27 08:26 29.89215 119.73853 14676 ft 368 kts 241°
2026-04-27 08:26 29.88371 119.72164 14677 ft 368 kts 241°
2026-04-27 08:27 29.86610 119.68775 14675 ft 369 kts 236°
2026-04-27 08:27 29.84959 119.66510 14678 ft 371 kts 227°
2026-04-27 08:27 29.83017 119.64562 15081 ft 377 kts 220°
2026-04-27 08:27 29.80919 119.62767 15895 ft 376 kts 217°
2026-04-27 08:28 29.78753 119.61087 16617 ft 376 kts 216°
2026-04-27 08:28 29.76567 119.59413 17266 ft 378 kts 217°
2026-04-27 08:28 29.74385 119.57724 17884 ft 379 kts 217°
2026-04-27 08:28 29.72196 119.56020 18483 ft 381 kts 217°
2026-04-27 08:29 29.69991 119.54301 19022 ft 384 kts 217°
2026-04-27 08:29 29.68522 119.53155 19361 ft 387 kts 217°
2026-04-27 08:29 29.65561 119.50840 20041 ft 390 kts 218°
2026-04-27 08:29 29.63419 119.48922 20554 ft 390 kts 224°
2026-04-27 08:30 29.61445 119.46780 21064 ft 391 kts 228°
2026-04-27 08:30 29.59613 119.44473 21548 ft 392 kts 231°
2026-04-27 08:30 29.58425 119.42907 21866 ft 393 kts 231°
2026-04-27 08:30 29.55976 119.39752 22453 ft 397 kts 231°
2026-04-27 08:31 29.54751 119.38181 22753 ft 398 kts 231°
2026-04-27 08:31 29.52900 119.35808 23180 ft 401 kts 231°
2026-04-27 08:31 29.50390 119.32616 23712 ft 404 kts 231°
2026-04-27 08:31 29.48522 119.30249 24099 ft 406 kts 231°
2026-04-27 08:32 29.47236 119.28622 24351 ft 408 kts 231°
2026-04-27 08:32 29.44699 119.25414 24847 ft 411 kts 231°
2026-04-27 08:32 29.43426 119.23805 25077 ft 413 kts 231°
2026-04-27 08:32 29.40830 119.20526 25514 ft 416 kts 231°
2026-04-27 08:33 29.38880 119.18064 25860 ft 419 kts 231°
2026-04-27 08:33 29.36914 119.15583 26198 ft 421 kts 231°
2026-04-27 08:33 29.35611 119.13935 26398 ft 422 kts 231°
2026-04-27 08:33 29.33638 119.11429 26713 ft 425 kts 231°
2026-04-27 08:34 29.31009 119.08100 27151 ft 427 kts 231°
2026-04-27 08:34 29.29660 119.06393 27341 ft 429 kts 231°
2026-04-27 08:34 29.26999 119.03033 27746 ft 431 kts 231°
2026-04-27 08:34 29.25666 119.01350 27986 ft 431 kts 231°
2026-04-27 08:35 29.23657 118.98810 28396 ft 430 kts 231°
2026-04-27 08:35 29.21644 118.96287 28810 ft 429 kts 231°
2026-04-27 08:35 29.18962 118.92926 29403 ft 426 kts 231°
2026-04-27 08:35 29.16989 118.90456 29795 ft 426 kts 231°
2026-04-27 08:36 29.14995 118.87961 30214 ft 424 kts 231°
2026-04-27 08:36 29.13652 118.86282 30498 ft 423 kts 231°
2026-04-27 08:36 29.11695 118.83835 30887 ft 423 kts 231°
2026-04-27 08:36 29.09039 118.80516 31318 ft 424 kts 231°
2026-04-27 08:37 29.05687 118.76332 31469 ft 434 kts 231°
2026-04-27 08:37 29.03649 118.73790 31788 ft 433 kts 231°
2026-04-27 08:37 29.00968 118.70442 32357 ft 429 kts 232°
2026-04-27 08:38 28.99615 118.68735 32605 ft 428 kts 232°
2026-04-27 08:38 28.97611 118.66217 32904 ft 429 kts 232°
2026-04-27 08:38 28.94955 118.62892 33355 ft 427 kts 232°
2026-04-27 08:38 28.93629 118.61236 33569 ft 427 kts 232°
2026-04-27 08:39 28.91625 118.58735 33893 ft 426 kts 232°
2026-04-27 08:39 28.89627 118.56244 34218 ft 425 kts 232°
2026-04-27 08:39 28.87629 118.53757 34530 ft 424 kts 232°
2026-04-27 08:39 28.85637 118.51278 34845 ft 424 kts 232°
2026-04-27 08:40 28.83646 118.48803 35145 ft 423 kts 232°
2026-04-27 08:40 28.81657 118.46332 35437 ft 422 kts 232°
2026-04-27 08:40 28.79676 118.43872 35740 ft 421 kts 232°
2026-04-27 08:40 28.77694 118.41413 36014 ft 421 kts 232°
2026-04-27 08:41 28.75742 118.38992 36297 ft 420 kts 232°
2026-04-27 08:41 28.73770 118.36548 36594 ft 419 kts 232°
2026-04-27 08:41 28.71799 118.34106 36820 ft 419 kts 232°
2026-04-27 08:41 28.69827 118.31665 37108 ft 417 kts 232°
2026-04-27 08:42 28.67863 118.29236 37347 ft 417 kts 232°
2026-04-27 08:42 28.65896 118.26804 37543 ft 418 kts 232°
2026-04-27 08:42 28.63929 118.24372 37790 ft 417 kts 232°
2026-04-27 08:42 28.61972 118.21935 37993 ft 417 kts 232°
2026-04-27 08:43 28.58055 118.17091 38003 ft 419 kts 232°
2026-04-27 08:43 28.54108 118.12233 38011 ft 418 kts 232°
2026-04-27 08:44 28.50155 118.07377 38013 ft 419 kts 232°
2026-04-27 08:44 28.46195 118.02516 38006 ft 419 kts 232°
2026-04-27 08:45 28.42262 117.97692 38005 ft 419 kts 232°
2026-04-27 08:45 28.38237 117.92883 38005 ft 420 kts 231°
2026-04-27 08:46 28.34171 117.88117 38006 ft 420 kts 231°
2026-04-27 08:46 28.30107 117.83342 38001 ft 421 kts 231°
2026-04-27 08:47 28.26086 117.78579 38001 ft 421 kts 231°
2026-04-27 08:47 28.22034 117.73799 38007 ft 420 kts 231°
2026-04-27 08:48 28.17973 117.69033 38009 ft 421 kts 231°
2026-04-27 08:48 28.13901 117.64263 38010 ft 421 kts 231°
2026-04-27 08:49 28.09857 117.59531 38009 ft 421 kts 231°
2026-04-27 08:49 28.05782 117.54763 38011 ft 421 kts 231°
2026-04-27 08:50 28.01710 117.50003 38011 ft 421 kts 231°
2026-04-27 08:50 27.97637 117.45248 38011 ft 420 kts 230°
2026-04-27 08:51 27.93570 117.40507 38012 ft 420 kts 230°
2026-04-27 08:51 27.89524 117.35795 38012 ft 421 kts 230°
2026-04-27 08:52 27.85449 117.31053 38012 ft 420 kts 230°
2026-04-27 08:52 27.81378 117.26310 38013 ft 421 kts 230°
2026-04-27 08:53 27.77317 117.21559 38013 ft 420 kts 230°
2026-04-27 08:53 27.73278 117.16843 38014 ft 421 kts 230°
2026-04-27 08:54 27.69201 117.12096 38014 ft 421 kts 230°
2026-04-27 08:54 27.65117 117.07365 38014 ft 421 kts 230°
2026-04-27 08:55 27.61026 117.02637 38014 ft 421 kts 229°
2026-04-27 08:55 27.56939 116.97917 38015 ft 421 kts 229°
2026-04-27 08:56 27.52872 116.93224 38015 ft 422 kts 229°
2026-04-27 08:56 27.48799 116.88476 38015 ft 421 kts 230°
2026-04-27 08:57 27.42709 116.81349 38015 ft 421 kts 230°
2026-04-27 08:58 27.38659 116.76587 38015 ft 421 kts 230°
2026-04-27 08:58 27.34621 116.71875 38022 ft 421 kts 229°
2026-04-27 08:59 27.30552 116.67139 38026 ft 421 kts 229°
2026-04-27 08:59 27.26484 116.62407 38019 ft 421 kts 229°
2026-04-27 09:00 27.22417 116.57682 38017 ft 420 kts 229°
2026-04-27 09:00 27.18425 116.52956 38010 ft 420 kts 230°
2026-04-27 09:01 27.14464 116.48142 38006 ft 419 kts 230°
2026-04-27 09:01 27.10513 116.43321 38006 ft 419 kts 230°
2026-04-27 09:02 27.06549 116.38525 38005 ft 419 kts 230°
2026-04-27 09:02 27.02609 116.33773 38005 ft 419 kts 230°
2026-04-27 09:03 26.98643 116.28996 38005 ft 418 kts 230°
2026-04-27 09:03 26.94677 116.24224 38004 ft 418 kts 230°
2026-04-27 09:04 26.90731 116.19460 38004 ft 417 kts 230°
2026-04-27 09:04 26.86806 116.14690 38004 ft 416 kts 230°
2026-04-27 09:05 26.82903 116.09953 38004 ft 416 kts 230°
2026-04-27 09:05 26.78976 116.05192 38003 ft 416 kts 230°
2026-04-27 09:06 26.75058 116.00448 38003 ft 415 kts 230°
2026-04-27 09:06 26.71138 115.95707 38003 ft 415 kts 230°
2026-04-27 09:07 26.67253 115.90993 38002 ft 414 kts 230°
2026-04-27 09:07 26.63353 115.86248 38002 ft 414 kts 230°
2026-04-27 09:08 26.59447 115.81517 38002 ft 414 kts 230°
2026-04-27 09:08 26.55538 115.76794 38001 ft 414 kts 230°
2026-04-27 09:09 26.51628 115.72076 38001 ft 414 kts 229°
2026-04-27 09:09 26.47740 115.67391 38001 ft 414 kts 229°
2026-04-27 09:10 26.43827 115.62681 38000 ft 414 kts 229°
2026-04-27 09:10 26.39909 115.57971 38000 ft 414 kts 229°
2026-04-27 09:11 26.35992 115.53266 38000 ft 414 kts 229°
2026-04-27 09:11 26.32100 115.48597 37999 ft 414 kts 229°
2026-04-27 09:12 26.28177 115.43896 37999 ft 414 kts 229°
2026-04-27 09:12 26.24251 115.39196 37998 ft 414 kts 229°
2026-04-27 09:13 26.20324 115.34499 37999 ft 414 kts 229°
2026-04-27 09:13 26.16426 115.29842 37998 ft 414 kts 229°
2026-04-27 09:14 26.12489 115.25144 37998 ft 416 kts 229°
2026-04-27 09:14 26.08543 115.20440 37998 ft 415 kts 229°
2026-04-27 09:15 26.04599 115.15743 37998 ft 416 kts 229°
2026-04-27 09:15 26.00659 115.11034 37998 ft 416 kts 229°
2026-04-27 09:16 25.96742 115.06373 38000 ft 414 kts 229°
2026-04-27 09:16 25.92810 115.01711 37999 ft 414 kts 229°
2026-04-27 09:17 25.88854 114.97030 37998 ft 418 kts 230°
2026-04-27 09:17 25.84893 114.92342 37997 ft 419 kts 231°
2026-04-27 09:18 25.80389 114.88221 37996 ft 428 kts 212°
2026-04-27 09:18 25.74713 114.86004 37996 ft 436 kts 200°
2026-04-27 09:19 25.68774 114.84493 37996 ft 438 kts 198°
2026-04-27 09:19 25.62826 114.83027 37996 ft 438 kts 198°
2026-04-27 09:20 25.56919 114.81565 37995 ft 438 kts 198°
2026-04-27 09:20 25.50969 114.80092 37995 ft 438 kts 198°
2026-04-27 09:21 25.45016 114.78614 37994 ft 438 kts 198°
2026-04-27 09:21 25.39070 114.77138 37997 ft 438 kts 198°
2026-04-27 09:22 25.33168 114.75676 37997 ft 438 kts 198°
2026-04-27 09:22 25.27219 114.74205 37997 ft 438 kts 198°
2026-04-27 09:23 25.21277 114.72737 37997 ft 438 kts 198°
2026-04-27 09:23 25.15331 114.71266 37996 ft 438 kts 198°
2026-04-27 09:24 25.09421 114.69808 37996 ft 438 kts 198°
2026-04-27 09:24 25.03468 114.68344 37995 ft 438 kts 198°
2026-04-27 09:25 24.97515 114.66882 37995 ft 438 kts 198°
2026-04-27 09:25 24.91534 114.65413 37629 ft 443 kts 198°
2026-04-27 09:25 24.88541 114.64679 37208 ft 438 kts 198°
2026-04-27 09:26 24.85603 114.63957 36548 ft 440 kts 197°
2026-04-27 09:26 24.82610 114.63231 35891 ft 440 kts 197°
2026-04-27 09:26 24.79614 114.62505 35216 ft 442 kts 197°
2026-04-27 09:26 24.76609 114.61777 34524 ft 443 kts 197°
2026-04-27 09:27 24.73600 114.61015 33818 ft 443 kts 199°
2026-04-27 09:27 24.70679 114.59978 33262 ft 439 kts 204°
2026-04-27 09:27 24.67904 114.58641 32738 ft 434 kts 209°
2026-04-27 09:27 24.65241 114.57109 32218 ft 430 kts 212°
2026-04-27 09:28 24.62691 114.55508 31716 ft 427 kts 213°
2026-04-27 09:28 24.60130 114.53881 31213 ft 424 kts 212°
2026-04-27 09:28 24.57581 114.52267 30716 ft 421 kts 212°
2026-04-27 09:28 24.55046 114.50664 30224 ft 419 kts 212°
2026-04-27 09:29 24.52528 114.49074 29739 ft 416 kts 212°
2026-04-27 09:29 24.50026 114.47495 29267 ft 414 kts 212°
2026-04-27 09:29 24.47540 114.45925 28795 ft 411 kts 212°
2026-04-27 09:29 24.45068 114.44367 28321 ft 408 kts 212°
2026-04-27 09:30 24.42614 114.42820 27850 ft 406 kts 212°
2026-04-27 09:30 24.40208 114.41300 27387 ft 403 kts 212°
2026-04-27 09:30 24.37779 114.39784 26917 ft 400 kts 212°
2026-04-27 09:30 24.35373 114.38277 26451 ft 397 kts 212°
2026-04-27 09:31 24.32982 114.36778 25987 ft 395 kts 213°
2026-04-27 09:31 24.30603 114.35291 25524 ft 392 kts 213°
2026-04-27 09:31 24.28243 114.33818 25063 ft 389 kts 213°
2026-04-27 09:31 24.25897 114.32355 24603 ft 386 kts 213°
2026-04-27 09:32 24.23572 114.30906 24147 ft 384 kts 213°
2026-04-27 09:32 24.21258 114.29464 23691 ft 381 kts 213°
2026-04-27 09:32 24.18994 114.28055 23243 ft 378 kts 213°
2026-04-27 09:32 24.16713 114.26635 22789 ft 376 kts 213°
2026-04-27 09:33 24.14450 114.25227 22338 ft 373 kts 213°
2026-04-27 09:33 24.12202 114.23825 21888 ft 370 kts 214°
2026-04-27 09:33 24.10200 114.22125 21442 ft 361 kts 230°
2026-04-27 09:33 24.08852 114.19860 21044 ft 353 kts 248°
2026-04-27 09:34 24.08134 114.17289 20460 ft 354 kts 258°
2026-04-27 09:34 24.07750 114.14630 20000 ft 353 kts 263°
2026-04-27 09:34 24.07525 114.12005 19557 ft 351 kts 265°
2026-04-27 09:34 24.07341 114.09357 19117 ft 348 kts 264°
2026-04-27 09:35 24.07141 114.06727 18681 ft 346 kts 264°
2026-04-27 09:35 24.06934 114.04115 18249 ft 343 kts 264°
2026-04-27 09:35 24.06727 114.01523 17822 ft 341 kts 263°
2026-04-27 09:35 24.06521 113.98950 17397 ft 339 kts 263°
2026-04-27 09:36 24.06320 113.96394 16974 ft 336 kts 263°
2026-04-27 09:36 24.06117 113.93850 16552 ft 335 kts 263°
2026-04-27 09:36 24.05914 113.91355 16140 ft 333 kts 263°
2026-04-27 09:36 24.05707 113.88841 15723 ft 331 kts 263°
2026-04-27 09:37 24.05500 113.86339 15307 ft 329 kts 263°
2026-04-27 09:37 24.05293 113.83850 14896 ft 328 kts 263°
2026-04-27 09:37 24.05087 113.81372 14486 ft 326 kts 262°
2026-04-27 09:37 24.04881 113.78907 14078 ft 325 kts 262°
2026-04-27 09:38 24.04676 113.76447 13672 ft 324 kts 262°
2026-04-27 09:38 24.04473 113.74004 13268 ft 322 kts 262°
2026-04-27 09:38 24.04269 113.71563 12865 ft 321 kts 262°
2026-04-27 09:38 24.04077 113.69169 12465 ft 320 kts 262°
2026-04-27 09:39 24.03878 113.66743 12051 ft 320 kts 262°
2026-04-27 09:39 24.03677 113.64325 11636 ft 319 kts 262°
2026-04-27 09:39 24.03474 113.61914 11225 ft 318 kts 262°
2026-04-27 09:39 24.03270 113.59503 10820 ft 317 kts 262°
2026-04-27 09:40 24.03066 113.57104 10421 ft 316 kts 262°
2026-04-27 09:40 24.02863 113.54719 10124 ft 312 kts 262°
2026-04-27 09:40 24.02668 113.52430 10048 ft 301 kts 262°
2026-04-27 09:40 24.02478 113.50196 9977 ft 290 kts 262°
2026-04-27 09:41 24.02294 113.48039 9905 ft 279 kts 261°
2026-04-27 09:41 24.01840 113.46035 9703 ft 268 kts 239°
2026-04-27 09:41 24.00580 113.44607 9411 ft 263 kts 210°
2026-04-27 09:41 23.98890 113.43882 9173 ft 259 kts 195°
2026-04-27 09:42 23.97170 113.43454 9098 ft 249 kts 192°
2026-04-27 09:42 23.95512 113.43060 9029 ft 239 kts 193°
2026-04-27 09:42 23.93953 113.42653 8966 ft 229 kts 194°
2026-04-27 09:42 23.92435 113.42254 8933 ft 220 kts 194°
2026-04-27 09:43 23.90941 113.42000 8774 ft 216 kts 184°
2026-04-27 09:43 23.89448 113.41973 8543 ft 213 kts 180°
2026-04-27 09:43 23.87976 113.42004 8312 ft 210 kts 180°
2026-04-27 09:43 23.86524 113.42029 8082 ft 207 kts 180°
2026-04-27 09:44 23.85084 113.42046 7854 ft 206 kts 180°
2026-04-27 09:44 23.83651 113.42059 7621 ft 206 kts 180°
2026-04-27 09:44 23.82242 113.42069 7391 ft 205 kts 180°
2026-04-27 09:44 23.80821 113.42079 7153 ft 204 kts 180°
2026-04-27 09:45 23.79405 113.42089 6914 ft 203 kts 180°
2026-04-27 09:45 23.78004 113.41936 6671 ft 202 kts 190°
2026-04-27 09:45 23.76644 113.41606 6453 ft 197 kts 193°
2026-04-27 09:45 23.75346 113.41230 6279 ft 187 kts 193°
2026-04-27 09:46 23.74129 113.40880 6111 ft 177 kts 193°
2026-04-27 09:46 23.72942 113.40545 5771 ft 176 kts 193°
2026-04-27 09:46 23.71750 113.40212 5419 ft 177 kts 193°
2026-04-27 09:46 23.70560 113.39883 5089 ft 177 kts 193°
2026-04-27 09:47 23.69382 113.39559 4771 ft 177 kts 192°
2026-04-27 09:47 23.68188 113.39233 4440 ft 177 kts 192°
2026-04-27 09:47 23.66996 113.38907 4109 ft 177 kts 192°
2026-04-27 09:47 23.65803 113.38582 3775 ft 177 kts 192°
2026-04-27 09:48 23.64584 113.38251 3307 ft 185 kts 192°
2026-04-27 09:48 23.63332 113.37911 3121 ft 186 kts 192°
2026-04-27 09:48 23.62081 113.37571 3050 ft 185 kts 192°
2026-04-27 09:48 23.60832 113.37232 2996 ft 185 kts 192°
2026-04-27 09:49 23.59584 113.36894 2994 ft 186 kts 192°
2026-04-27 09:49 23.58343 113.36557 2995 ft 186 kts 192°
2026-04-27 09:49 23.57084 113.36216 2994 ft 186 kts 192°
2026-04-27 09:49 23.55825 113.35875 2995 ft 187 kts 192°
2026-04-27 09:50 23.54565 113.35533 2878 ft 186 kts 192°
2026-04-27 09:50 23.53302 113.35191 2644 ft 187 kts 192°
2026-04-27 09:50 23.52039 113.34849 2394 ft 186 kts 192°
2026-04-27 09:50 23.50812 113.34517 2156 ft 177 kts 192°
2026-04-27 09:51 23.49676 113.34209 1946 ft 165 kts 192°
2026-04-27 09:51 23.48586 113.33914 1716 ft 159 kts 192°
2026-04-27 09:51 23.47526 113.33627 1502 ft 155 kts 191°
2026-04-27 09:51 23.46487 113.33346 1298 ft 153 kts 191°
2026-04-27 09:52 23.45460 113.33068 1100 ft 152 kts 191°
2026-04-27 09:52 23.44430 113.32789 899 ft 153 kts 191°
2026-04-27 09:52 23.43397 113.32510 695 ft 152 kts 191°
2026-04-27 09:52 23.42369 113.32232 493 ft 152 kts 191°
2026-04-27 09:53 23.41345 113.31955 289 ft 152 kts 191°
2026-04-27 09:53 23.40336 113.31679 101 ft 151 kts 191°
2026-04-27 09:53 23.39362 113.31420 60 ft 133 kts 191°
2026-04-27 09:53 23.38655 113.31232 57 ft 67 kts 193°
2026-04-27 09:54 23.38397 113.31158 57 ft 20 kts 197°
2026-04-27 09:54 23.38270 113.31109 57 ft 19 kts 207°
2026-04-27 09:54 23.38184 113.31035 57 ft 13 kts 220°
2026-04-27 09:54 23.38116 113.30972 57 ft 11 kts 220°
2026-04-27 09:55 23.38064 113.30921 57 ft 9 kts 223°
2026-04-27 09:55 23.38023 113.30880 57 ft 7 kts 228°
2026-04-27 09:55 23.38026 113.30732 57 ft 15 kts 284°
2026-04-27 09:56 23.38050 113.30628 57 ft 14 kts 284°
2026-04-27 09:56 23.38071 113.30537 57 ft 12 kts 284°
2026-04-27 09:56 23.38091 113.30453 57 ft 11 kts 283°
2026-04-27 09:56 23.38108 113.30371 57 ft 11 kts 284°
2026-04-27 09:57 23.38129 113.30304 57 ft 9 kts 311°
2026-04-27 09:57 23.38187 113.30298 57 ft 9 kts 14°
2026-04-27 09:57 23.38244 113.30314 57 ft 8 kts 14°
2026-04-27 09:57 23.38313 113.30332 57 ft 15 kts 13°
2026-04-27 09:58 23.38424 113.30363 57 ft 16 kts 14°
2026-04-27 09:58 23.38523 113.30389 57 ft 14 kts 14°
2026-04-27 09:58 23.38612 113.30413 57 ft 13 kts 14°
2026-04-27 09:58 23.38697 113.30436 57 ft 12 kts 14°
2026-04-27 09:59 23.38779 113.30459 57 ft 12 kts 14°
2026-04-27 09:59 23.38858 113.30480 57 ft 11 kts 13°
2026-04-27 09:59 23.38934 113.30500 57 ft 10 kts 14°
2026-04-27 09:59 23.38995 113.30517 57 ft 9 kts 14°
2026-04-27 10:00 23.39054 113.30533 57 ft 9 kts 14°
2026-04-27 10:00 23.39103 113.30546 57 ft 7 kts 14°
2026-04-27 10:00 23.39147 113.30558 57 ft 6 kts 14°
2026-04-27 10:00 23.39179 113.30558 57 ft 4 kts 337°
2026-04-27 10:01 23.39208 113.30536 57 ft 8 kts 322°
2026-04-27 10:01 23.39237 113.30496 57 ft 5 kts 290°
2026-04-27 10:01 23.39247 113.30459 57 ft 5 kts 285°
2026-04-27 10:01 23.39255 113.30424 57 ft 5 kts 283°
2026-04-27 10:02 23.39248 113.30393 57 ft 5 kts 202°
2026-04-27 10:02 23.39224 113.30386 57 ft 3 kts 193°
2026-04-27 10:02 23.39207 113.30382 57 ft 1 kts 193°
2026-04-27 10:02 23.39205 113.30382 57 ft 0 kts 193°